カタログに戻る

STARLINK-36338

運用中通信SSO
NORAD 67704·PAYLOAD·🇺🇸 United States

打ち上げ Feb 7, 2026 から Vandenberg Space Force Base

Loading…

次のパス (今後24時間)

TLE

最新Source: CelesTrak SupGP

元期: Sep 14, 2026, 20:33 UTC

1 67704C 26025M   26257.85673611 -.00010336  00000+0 -32077-3 0  2571
2 67704  97.2858   7.7811 0000936 105.2673  25.8705 15.33453695    13

AllMySatでSTARLINK-36338をリアルタイム追跡

Download on the App Store